COSMOS 343

导读

**COSMOS 343卫星摘要** COSMOS 343是苏联/独联体(CIS)于1970年4月25日08:00发射的“宇宙”系列人造卫星,隶属于冷战时期苏联航天项目。作为该系列批量发射的军用或科研卫星之一,它延续了苏联“宇宙”系列保密任务特征,主要承担空间环境探测、技术试验或军事侦察任务,是苏联1970年代航天活动的典型产物,为后续航天技术发展积累了重要在轨数据。

基本信息
目录编号:
4390
目录名称:
COSMOS 343
国际标识:
1970-036H
轨道中心:
EARTH
卫星名称:
COSMOS 343
卫星全名:
--
卫星状态:
在轨 (已飞行20596 天)
发射日期:
1970-04-25 UTC
国别 :
俄罗斯(独联体) (CIS)
星等 :
--
该卫星已列入 空间交会检测服务 Space Conjunction Data Service (SCDS) ,当前飞行风险评估等级: 无高风险
轨道信息
数据来源 国际轨道数据 AOE轨道数据
星历时间 2026-09-14T04:23:23+0800
9小时前
查看轨道信息
2026-09-13T01:00:00+0800
1天前
查看轨道信息
半长轴 7799.167km 7799.164km
偏心率 0.0060285 0.0060453
轨道倾角 74.028° 74.030°
近地点辐角 223.534° 225.389°
升交点赤经 300.104° 301.650°
平近点角 311.929° 173.273°
近地点 1374.012km 1373.878km
远地点 1468.048km 1468.176km
周期 114.244分钟 114.244分钟
每日圈数 12.604641 12.604648
详细信息
使用方式:
暂无
2D轨道图
3D轨道图
轨道高度分析图
轨道倾角分析图
轨道综合分析图
查看轨道综合分析图
与全量物体交会距离演化趋势 订阅飞行安全评估服务
与全量物体交会风险概率演化趋势 订阅飞行安全评估服务